Time,TemperatureF,DewpointF,PressureIn,WindDirection,WindDirectionDegrees,WindSpeedMPH,WindSpeedGustMPH,Humidity,HourlyPrecipIn,Conditions,Clouds,dailyrainin,SoftwareType,DateUTC
2013-10-21 00:06:00,50.2,47.4,30.04,ENE,74,0.0,0.0,90,0.00,,,0.00,Wunderground v.1.15,2013-10-21 04:06:00,
2013-10-21 00:11:00,50.1,47.3,30.04,ENE,74,0.0,0.0,90,0.00,,,0.00,Wunderground v.1.15,2013-10-21 04:11:00,
2013-10-21 00:16:00,50.0,47.2,30.04,ENE,74,0.0,0.0,90,0.00,,,0.00,Wunderground v.1.15,2013-10-21 04:16:00,
2013-10-21 00:22:00,49.9,47.4,30.03,ENE,74,0.0,0.0,91,0.00,,,0.00,Wunderground v.1.15,2013-10-21 04:22:00,
2013-10-21 00:28:00,49.8,47.3,30.04,ENE,74,0.0,0.0,91,0.00,,,0.00,Wunderground v.1.15,2013-10-21 04:28:00,
2013-10-21 00:33:00,49.8,47.3,30.04,ENE,74,0.0,0.0,91,0.00,,,0.00,Wunderground v.1.15,2013-10-21 04:33:00,
2013-10-21 00:38:00,49.7,46.9,30.04,ENE,74,0.0,0.0,90,0.00,,,0.00,Wunderground v.1.15,2013-10-21 04:38:00,
2013-10-21 00:44:00,49.5,46.7,30.04,ENE,74,0.0,0.0,90,0.00,,,0.00,Wunderground v.1.15,2013-10-21 04:44:00,
2013-10-21 00:45:00,51.4,39.2,30.33,ENE,74,0.0,1.0,63,0.00,,,0.00,Wunderground v.1.15,2013-10-21 04:45:00,
2013-10-21 00:46:00,51.4,39.2,30.33,East,79,2.0,2.0,63,0.00,,,0.00,Wunderground v.1.15,2013-10-21 04:46:00,
2013-10-21 00:47:00,51.5,39.3,30.33,East,79,0.0,2.0,63,0.00,,,0.00,Wunderground v.1.15,2013-10-21 04:47:00,
2013-10-21 00:48:00,51.5,39.3,30.33,ENE,74,2.0,2.0,63,0.00,,,0.00,Wunderground v.1.15,2013-10-21 04:48:00,
2013-10-21 00:49:00,49.5,46.7,30.04,ENE,74,0.0,0.0,90,0.00,,,0.00,Wunderground v.1.15,2013-10-21 04:49:00,
2013-10-21 00:50:00,51.4,39.2,30.33,East,89,0.0,1.0,63,0.00,,,0.00,Wunderground v.1.15,2013-10-21 04:50:00,
2013-10-21 00:51:00,51.4,39.2,30.33,East,90,0.0,1.0,63,0.00,,,0.00,Wunderground v.1.15,2013-10-21 04:51:00,
2013-10-21 00:52:00,51.4,39.2,30.34,East,90,0.0,1.0,63,0.00,,,0.00,Wunderground v.1.15,2013-10-21 04:52:00,
2013-10-21 00:53:00,51.4,39.2,30.34,ENE,70,2.0,2.0,63,0.00,,,0.00,Wunderground v.1.15,2013-10-21 04:53:00,
2013-10-21 00:54:00,51.4,39.2,30.34,East,86,0.0,2.0,63,0.00,,,0.00,Wunderground v.1.15,2013-10-21 04:54:00,
2013-10-21 00:55:00,49.5,46.7,30.03,ENE,74,0.0,0.0,90,0.00,,,0.00,Wunderground v.1.15,2013-10-21 04:55:00,
2013-10-21 00:56:00,51.4,39.2,30.34,ESE,104,1.0,3.0,63,0.00,,,0.00,Wunderground v.1.15,2013-10-21 04:56:00,
2013-10-21 00:57:00,51.4,39.2,30.34,ESE,104,0.0,3.0,63,0.00,,,0.00,Wunderground v.1.15,2013-10-21 04:57:00,
2013-10-21 00:58:00,51.5,39.3,30.34,ESE,104,0.0,3.0,63,0.00,,,0.00,Wunderground v.1.15,2013-10-21 04:58:00,
2013-10-21 00:59:00,51.5,39.3,30.34,ESE,105,0.0,3.0,63,0.00,,,0.00,Wunderground v.1.15,2013-10-21 04:59:00,
2013-10-21 01:00:00,49.5,46.7,30.04,ENE,74,0.0,0.0,90,0.00,,,0.00,Wunderground v.1.15,2013-10-21 05:00:00,
2013-10-21 01:01:00,51.5,39.3,30.34,East,85,2.0,2.0,63,0.00,,,0.00,Wunderground v.1.15,2013-10-21 05:01:00,
2013-10-21 01:02:00,51.5,39.3,30.34,East,85,0.0,2.0,63,0.00,,,0.00,Wunderground v.1.15,2013-10-21 05:02:00,
2013-10-21 01:03:00,51.5,39.3,30.34,East,85,0.0,2.0,63,0.00,,,0.00,Wunderground v.1.15,2013-10-21 05:03:00,
2013-10-21 01:04:00,51.5,39.3,30.34,East,85,0.0,2.0,63,0.00,,,0.00,Wunderground v.1.15,2013-10-21 05:04:00,
2013-10-21 01:05:00,49.5,46.7,30.04,ENE,74,0.0,0.0,90,0.00,,,0.00,Wunderground v.1.15,2013-10-21 05:05:00,
2013-10-21 01:06:00,51.5,39.3,30.34,ENE,75,4.0,4.0,63,0.00,,,0.00,Wunderground v.1.15,2013-10-21 05:06:00,
2013-10-21 01:07:00,51.5,39.3,30.34,East,83,3.0,4.0,63,0.00,,,0.00,Wunderground v.1.15,2013-10-21 05:07:00,
2013-10-21 01:08:00,51.5,39.3,30.34,East,82,0.0,4.0,63,0.00,,,0.00,Wunderground v.1.15,2013-10-21 05:08:00,
2013-10-21 01:09:00,51.5,39.3,30.34,East,92,0.0,4.0,63,0.00,,,0.00,Wunderground v.1.15,2013-10-21 05:09:00,
2013-10-21 01:10:00,49.5,46.7,30.04,ENE,74,0.0,0.0,90,0.00,,,0.00,Wunderground v.1.15,2013-10-21 05:10:00,
2013-10-21 01:11:00,51.5,39.3,30.34,East,94,0.0,1.0,63,0.00,,,0.00,Wunderground v.1.15,2013-10-21 05:11:00,
2013-10-21 01:12:00,51.6,39.4,30.34,ENE,72,2.0,2.0,63,0.00,,,0.00,Wunderground v.1.15,2013-10-21 05:12:00,
2013-10-21 01:13:00,51.6,39.4,30.34,ENE,72,0.0,2.0,63,0.00,,,0.00,Wunderground v.1.15,2013-10-21 05:13:00,
2013-10-21 01:14:00,51.6,39.4,30.34,ENE,72,0.0,2.0,63,0.00,,,0.00,Wunderground v.1.15,2013-10-21 05:14:00,
2013-10-21 01:15:00,49.4,46.6,30.04,ENE,74,0.0,0.0,90,0.00,,,0.00,Wunderground v.1.15,2013-10-21 05:15:00,
2013-10-21 01:16:00,51.6,39.4,30.34,ENE,74,2.0,2.0,63,0.00,,,0.00,Wunderground v.1.15,2013-10-21 05:16:00,
2013-10-21 01:17:00,51.6,39.4,30.34,ENE,70,4.0,4.0,63,0.00,,,0.00,Wunderground v.1.15,2013-10-21 05:17:00,
2013-10-21 01:18:00,51.6,39.4,30.34,ENE,74,2.0,4.0,63,0.00,,,0.00,Wunderground v.1.15,2013-10-21 05:18:00,
2013-10-21 01:19:00,51.6,39.4,30.34,East,84,4.0,4.0,63,0.00,,,0.00,Wunderground v.1.15,2013-10-21 05:19:00,
2013-10-21 01:20:00,49.4,46.9,30.04,ENE,74,0.0,0.0,91,0.00,,,0.00,Wunderground v.1.15,2013-10-21 05:20:00,
2013-10-21 01:21:00,51.6,39.4,30.34,ENE,71,1.0,1.0,63,0.00,,,0.00,Wunderground v.1.15,2013-10-21 05:21:00,
2013-10-21 01:22:00,51.6,39.4,30.34,ENE,71,3.0,3.0,63,0.00,,,0.00,Wunderground v.1.15,2013-10-21 05:22:00,
2013-10-21 01:23:00,51.5,39.3,30.34,ENE,71,1.0,3.0,63,0.00,,,0.00,Wunderground v.1.15,2013-10-21 05:23:00,
2013-10-21 01:24:00,51.6,39.4,30.34,ENE,71,3.0,3.0,63,0.00,,,0.00,Wunderground v.1.15,2013-10-21 05:24:00,
2013-10-21 01:25:00,51.6,39.4,30.34,ENE,71,3.0,3.0,63,0.00,,,0.00,Wunderground v.1.15,2013-10-21 05:25:00,
2013-10-21 01:26:00,49.3,46.5,30.03,ENE,74,0.0,0.0,90,0.00,,,0.00,Wunderground v.1.15,2013-10-21 05:26:00,
2013-10-21 01:27:00,51.6,39.4,30.34,ENE,71,2.0,3.0,63,0.00,,,0.00,Wunderground v.1.15,2013-10-21 05:27:00,
2013-10-21 01:28:00,51.6,39.4,30.34,ENE,62,3.0,3.0,63,0.00,,,0.00,Wunderground v.1.15,2013-10-21 05:28:00,
2013-10-21 01:29:00,51.5,39.7,30.33,ENE,63,2.0,3.0,64,0.00,,,0.00,Wunderground v.1.15,2013-10-21 05:29:00,
2013-10-21 01:30:00,51.5,39.7,30.33,East,100,1.0,2.0,64,0.00,,,0.00,Wunderground v.1.15,2013-10-21 05:30:00,
2013-10-21 01:31:00,49.2,46.4,30.04,ENE,74,0.0,0.0,90,0.00,,,0.00,Wunderground v.1.15,2013-10-21 05:31:00,
2013-10-21 01:32:00,51.5,39.7,30.33,East,86,1.0,3.0,64,0.00,,,0.00,Wunderground v.1.15,2013-10-21 05:32:00,
2013-10-21 01:33:00,51.5,39.7,30.33,East,80,2.0,3.0,64,0.00,,,0.00,Wunderground v.1.15,2013-10-21 05:33:00,
2013-10-21 01:34:00,51.5,39.7,30.33,East,80,0.0,3.0,64,0.00,,,0.00,Wunderground v.1.15,2013-10-21 05:34:00,
2013-10-21 01:35:00,51.5,39.7,30.33,ENE,77,2.0,3.0,64,0.00,,,0.00,Wunderground v.1.15,2013-10-21 05:35:00,
2013-10-21 01:36:00,49.1,46.3,30.03,ENE,74,0.0,0.0,90,0.00,,,0.00,Wunderground v.1.15,2013-10-21 05:36:00,
2013-10-21 01:37:00,51.4,39.6,30.33,ENE,76,2.0,4.0,64,0.00,,,0.00,Wunderground v.1.15,2013-10-21 05:37:00,
2013-10-21 01:39:00,51.4,39.6,30.34,ENE,59,3.0,4.0,64,0.00,,,0.00,Wunderground v.1.15,2013-10-21 05:39:00,
2013-10-21 01:40:00,51.4,39.6,30.34,ENE,71,4.0,4.0,64,0.00,,,0.00,Wunderground v.1.15,2013-10-21 05:40:00,
2013-10-21 01:41:00,49.0,46.5,30.04,ENE,74,0.0,0.0,91,0.00,,,0.00,Wunderground v.1.15,2013-10-21 05:41:00,
2013-10-21 01:42:00,51.4,39.6,30.34,ENE,71,1.0,4.0,64,0.00,,,0.00,Wunderground v.1.15,2013-10-21 05:42:00,
2013-10-21 01:43:00,51.4,39.6,30.34,ENE,71,2.0,4.0,64,0.00,,,0.00,Wunderground v.1.15,2013-10-21 05:43:00,
2013-10-21 01:44:00,51.4,39.6,30.34,ENE,71,0.0,4.0,64,0.00,,,0.00,Wunderground v.1.15,2013-10-21 05:44:00,
2013-10-21 01:45:00,51.3,39.9,30.33,ENE,71,2.0,4.0,65,0.00,,,0.00,Wunderground v.1.15,2013-10-21 05:45:00,
2013-10-21 01:46:00,49.0,46.8,30.04,ENE,74,0.0,0.0,92,0.00,,,0.00,Wunderground v.1.15,2013-10-21 05:46:00,
2013-10-21 01:47:00,51.3,39.9,30.33,ENE,71,2.0,4.0,65,0.00,,,0.00,Wunderground v.1.15,2013-10-21 05:47:00,
2013-10-21 01:48:00,51.3,39.9,30.33,ENE,71,3.0,4.0,65,0.00,,,0.00,Wunderground v.1.15,2013-10-21 05:48:00,
2013-10-21 01:49:00,51.3,39.9,30.34,East,80,3.0,4.0,65,0.00,,,0.00,Wunderground v.1.15,2013-10-21 05:49:00,
2013-10-21 01:50:00,51.3,39.9,30.34,East,80,2.0,2.0,65,0.00,,,0.00,Wunderground v.1.15,2013-10-21 05:50:00,
2013-10-21 01:51:00,51.3,39.9,30.34,East,80,2.0,2.0,65,0.00,,,0.00,Wunderground v.1.15,2013-10-21 05:51:00,
2013-10-21 01:52:00,49.0,46.8,30.04,ENE,74,0.0,0.0,92,0.00,,,0.00,Wunderground v.1.15,2013-10-21 05:52:00,
2013-10-21 01:53:00,51.3,39.9,30.34,ENE,75,2.0,2.0,65,0.00,,,0.00,Wunderground v.1.15,2013-10-21 05:53:00,
2013-10-21 01:54:00,51.3,39.9,30.34,NE,52,4.0,4.0,65,0.00,,,0.00,Wunderground v.1.15,2013-10-21 05:54:00,
2013-10-21 01:55:00,51.3,39.9,30.34,ENE,65,3.0,4.0,65,0.00,,,0.00,Wunderground v.1.15,2013-10-21 05:55:00,
2013-10-21 01:57:00,48.9,46.7,30.04,ENE,74,0.0,0.0,92,0.00,,,0.00,Wunderground v.1.15,2013-10-21 05:57:00,
2013-10-21 01:58:00,51.3,39.9,30.34,East,95,0.0,4.0,65,0.00,,,0.00,Wunderground v.1.15,2013-10-21 05:58:00,
2013-10-21 01:59:00,51.3,39.9,30.34,NE,55,2.0,4.0,65,0.00,,,0.00,Wunderground v.1.15,2013-10-21 05:59:00,
2013-10-21 02:00:00,51.3,39.9,30.35,ENE,57,2.0,2.0,65,0.00,,,0.00,Wunderground v.1.15,2013-10-21 06:00:00,
2013-10-21 02:01:00,51.3,39.9,30.35,East,80,2.0,3.0,65,0.00,,,0.00,Wunderground v.1.15,2013-10-21 06:01:00,
2013-10-21 02:02:00,48.8,46.6,30.04,ENE,74,0.0,0.0,92,0.00,,,0.00,Wunderground v.1.15,2013-10-21 06:02:00,
2013-10-21 02:03:00,51.2,39.8,30.34,East,81,1.0,3.0,65,0.00,,,0.00,Wunderground v.1.15,2013-10-21 06:03:00,
2013-10-21 02:04:00,51.2,39.8,30.34,ENE,76,3.0,3.0,65,0.00,,,0.00,Wunderground v.1.15,2013-10-21 06:04:00,
2013-10-21 02:05:00,51.2,39.8,30.34,ENE,76,2.0,3.0,65,0.00,,,0.00,Wunderground v.1.15,2013-10-21 06:05:00,
2013-10-21 02:06:00,51.3,39.9,30.34,East,84,2.0,3.0,65,0.00,,,0.00,Wunderground v.1.15,2013-10-21 06:06:00,
2013-10-21 02:07:00,48.8,46.6,30.04,ENE,74,0.0,0.0,92,0.00,,,0.00,Wunderground v.1.15,2013-10-21 06:07:00,
2013-10-21 02:08:00,51.2,39.8,30.34,ENE,57,2.0,5.0,65,0.00,,,0.00,Wunderground v.1.15,2013-10-21 06:08:00,
2013-10-21 02:09:00,51.2,39.8,30.34,ENE,68,4.0,5.0,65,0.00,,,0.00,Wunderground v.1.15,2013-10-21 06:09:00,
2013-10-21 02:12:00,48.7,46.2,30.04,ENE,74,0.0,0.0,91,0.00,,,0.00,Wunderground v.1.15,2013-10-21 06:12:00,
2013-10-21 02:18:00,48.6,46.4,30.04,ENE,74,0.0,0.0,92,0.00,,,0.00,Wunderground v.1.15,2013-10-21 06:18:00,
2013-10-21 02:23:00,48.5,46.0,30.04,ENE,74,0.0,0.0,91,0.00,,,0.00,Wunderground v.1.15,2013-10-21 06:23:00,
2013-10-21 02:27:00,48.2,45.7,30.04,ENE,74,0.0,0.0,91,0.00,,,0.00,Wunderground v.1.15,2013-10-21 06:27:00,
2013-10-21 02:32:00,48.1,45.9,30.04,ENE,74,0.0,0.0,92,0.00,,,0.00,Wunderground v.1.15,2013-10-21 06:32:00,
2013-10-21 02:37:00,48.1,45.9,30.04,ENE,74,0.0,0.0,92,0.00,,,0.00,Wunderground v.1.15,2013-10-21 06:37:00,
2013-10-21 02:42:00,47.7,45.2,30.04,ENE,74,0.0,0.0,91,0.00,,,0.00,Wunderground v.1.15,2013-10-21 06:42:00,
2013-10-21 02:48:00,47.5,45.0,30.04,ENE,74,0.0,0.0,91,0.00,,,0.00,Wunderground v.1.15,2013-10-21 06:48:00,
2013-10-21 02:53:00,47.3,44.8,30.04,ENE,74,0.0,0.0,91,0.00,,,0.00,Wunderground v.1.15,2013-10-21 06:53:00,
2013-10-21 02:58:00,47.2,44.7,30.04,ENE,74,0.0,0.0,91,0.00,,,0.00,Wunderground v.1.15,2013-10-21 06:58:00,
2013-10-21 03:03:00,47.1,44.6,30.04,ENE,74,0.0,0.0,91,0.00,,,0.00,Wunderground v.1.15,2013-10-21 07:03:00,
2013-10-21 03:08:00,47.0,44.5,30.04,ENE,74,0.0,0.0,91,0.00,,,0.00,Wunderground v.1.15,2013-10-21 07:08:00,
2013-10-21 03:13:00,47.0,44.8,30.04,ENE,74,0.0,0.0,92,0.00,,,0.00,Wunderground v.1.15,2013-10-21 07:13:00,
2013-10-21 03:18:00,47.1,44.9,30.03,ENE,74,0.0,0.0,92,0.00,,,0.00,Wunderground v.1.15,2013-10-21 07:18:00,
2013-10-21 03:23:00,47.3,45.1,30.04,ENE,74,0.0,0.0,92,0.00,,,0.00,Wunderground v.1.15,2013-10-21 07:23:00,
2013-10-21 03:28:00,47.3,45.1,30.04,ENE,74,0.0,0.0,92,0.00,,,0.00,Wunderground v.1.15,2013-10-21 07:28:00,
2013-10-21 03:33:00,47.2,45.0,30.05,ENE,74,0.0,0.0,92,0.00,,,0.00,Wunderground v.1.15,2013-10-21 07:33:00,
2013-10-21 03:38:00,47.2,44.7,30.04,ENE,74,0.0,0.0,91,0.00,,,0.00,Wunderground v.1.15,2013-10-21 07:38:00,
2013-10-21 03:43:00,47.2,45.0,30.05,ENE,74,0.0,0.0,92,0.00,,,0.00,Wunderground v.1.15,2013-10-21 07:43:00,
2013-10-21 03:48:00,47.3,45.1,30.04,ENE,74,0.0,0.0,92,0.00,,,0.00,Wunderground v.1.15,2013-10-21 07:48:00,
2013-10-21 03:53:00,47.2,45.0,30.04,ENE,74,0.0,0.0,92,0.00,,,0.00,Wunderground v.1.15,2013-10-21 07:53:00,
2013-10-21 03:58:00,47.2,45.0,30.04,ENE,74,0.0,0.0,92,0.00,,,0.00,Wunderground v.1.15,2013-10-21 07:58:00,
2013-10-21 04:03:00,47.2,45.0,30.04,ENE,74,0.0,0.0,92,0.00,,,0.00,Wunderground v.1.15,2013-10-21 08:03:00,
2013-10-21 04:08:00,47.2,45.3,30.04,ENE,74,0.0,0.0,93,0.00,,,0.00,Wunderground v.1.15,2013-10-21 08:08:00,
2013-10-21 04:13:00,47.0,44.8,30.05,ENE,74,0.0,0.0,92,0.00,,,0.00,Wunderground v.1.15,2013-10-21 08:13:00,
2013-10-21 04:18:00,46.9,44.7,30.04,ENE,74,0.0,0.0,92,0.00,,,0.00,Wunderground v.1.15,2013-10-21 08:18:00,
2013-10-21 04:23:00,46.8,44.9,30.05,ENE,74,0.0,0.0,93,0.00,,,0.00,Wunderground v.1.15,2013-10-21 08:23:00,
2013-10-21 04:28:00,46.8,44.9,30.05,ENE,74,0.0,0.0,93,0.00,,,0.00,Wunderground v.1.15,2013-10-21 08:28:00,
2013-10-21 04:33:00,46.8,44.9,30.05,ENE,74,0.0,0.0,93,0.00,,,0.00,Wunderground v.1.15,2013-10-21 08:33:00,
2013-10-21 04:39:00,46.7,44.5,30.05,ENE,74,0.0,0.0,92,0.00,,,0.00,Wunderground v.1.15,2013-10-21 08:39:00,
2013-10-21 04:44:00,46.3,43.8,30.05,ENE,74,0.0,0.0,91,0.00,,,0.00,Wunderground v.1.15,2013-10-21 08:44:00,
2013-10-21 04:49:00,46.1,43.6,30.05,ENE,74,0.0,0.0,91,0.00,,,0.00,Wunderground v.1.15,2013-10-21 08:49:00,
2013-10-21 04:54:00,46.0,43.8,30.05,ENE,74,0.0,0.0,92,0.00,,,0.00,Wunderground v.1.15,2013-10-21 08:54:00,
2013-10-21 04:59:00,46.0,44.1,30.05,ENE,74,0.0,0.0,93,0.00,,,0.00,Wunderground v.1.15,2013-10-21 08:59:00,
2013-10-21 05:04:00,46.0,44.1,30.05,ENE,74,0.0,0.0,93,0.00,,,0.00,Wunderground v.1.15,2013-10-21 09:04:00,
2013-10-21 05:09:00,46.0,44.1,30.04,ENE,74,0.0,0.0,93,0.00,,,0.00,Wunderground v.1.15,2013-10-21 09:09:00,
2013-10-21 05:14:00,46.0,44.1,30.05,ENE,74,0.0,0.0,93,0.00,,,0.00,Wunderground v.1.15,2013-10-21 09:14:00,
2013-10-21 05:19:00,46.0,44.1,30.05,ENE,74,0.0,0.0,93,0.00,,,0.00,Wunderground v.1.15,2013-10-21 09:19:00,
2013-10-21 05:24:00,45.8,43.9,30.05,ENE,74,0.0,0.0,93,0.00,,,0.00,Wunderground v.1.15,2013-10-21 09:24:00,
2013-10-21 05:29:00,45.8,43.9,30.05,ENE,74,0.0,0.0,93,0.00,,,0.00,Wunderground v.1.15,2013-10-21 09:29:00,
2013-10-21 05:34:00,45.7,43.8,30.05,ENE,74,0.0,0.0,93,0.00,,,0.00,Wunderground v.1.15,2013-10-21 09:34:00,
2013-10-21 05:39:00,45.6,43.7,30.05,ENE,74,0.0,0.0,93,0.00,,,0.00,Wunderground v.1.15,2013-10-21 09:39:00,
2013-10-21 05:44:00,45.6,43.7,30.06,ENE,74,0.0,0.0,93,0.00,,,0.00,Wunderground v.1.15,2013-10-21 09:44:00,
2013-10-21 05:49:00,45.6,43.7,30.06,ENE,74,0.0,0.0,93,0.00,,,0.00,Wunderground v.1.15,2013-10-21 09:49:00,
2013-10-21 05:54:00,45.6,43.7,30.06,ENE,74,0.0,0.0,93,0.00,,,0.00,Wunderground v.1.15,2013-10-21 09:54:00,
2013-10-21 05:59:00,45.6,43.7,30.06,ENE,74,0.0,0.0,93,0.00,,,0.00,Wunderground v.1.15,2013-10-21 09:59:00,
2013-10-21 06:04:00,45.6,43.7,30.06,ENE,74,0.0,0.0,93,0.00,,,0.00,Wunderground v.1.15,2013-10-21 10:04:00,
2013-10-21 06:09:00,45.6,44.0,30.07,ENE,74,0.0,0.0,94,0.00,,,0.00,Wunderground v.1.15,2013-10-21 10:09:00,
2013-10-21 06:14:00,45.6,44.0,30.07,ENE,74,0.0,0.0,94,0.00,,,0.00,Wunderground v.1.15,2013-10-21 10:14:00,
2013-10-21 06:20:00,45.6,44.0,30.07,ENE,74,0.0,0.0,94,0.00,,,0.00,Wunderground v.1.15,2013-10-21 10:20:00,
2013-10-21 06:25:00,45.5,43.6,30.06,ENE,74,0.0,0.0,93,0.00,,,0.00,Wunderground v.1.15,2013-10-21 10:25:00,
2013-10-21 06:30:00,45.6,44.0,30.06,ENE,74,0.0,0.0,94,0.00,,,0.00,Wunderground v.1.15,2013-10-21 10:30:00,
2013-10-21 06:35:00,45.6,44.0,30.06,ENE,74,0.0,0.0,94,0.00,,,0.00,Wunderground v.1.15,2013-10-21 10:35:00,
2013-10-21 06:40:00,45.4,43.5,30.06,ENE,74,0.0,0.0,93,0.00,,,0.00,Wunderground v.1.15,2013-10-21 10:40:00,
2013-10-21 06:45:00,45.0,42.8,30.06,ENE,74,0.0,0.0,92,0.00,,,0.00,Wunderground v.1.15,2013-10-21 10:45:00,
2013-10-21 06:50:00,45.0,43.1,30.06,ENE,74,0.0,0.0,93,0.00,,,0.00,Wunderground v.1.15,2013-10-21 10:50:00,
2013-10-21 06:55:00,45.0,43.4,30.06,ENE,74,0.0,0.0,94,0.00,,,0.00,Wunderground v.1.15,2013-10-21 10:55:00,
2013-10-21 07:00:00,45.0,43.4,30.07,ENE,74,0.0,0.0,94,0.00,,,0.00,Wunderground v.1.15,2013-10-21 11:00:00,
2013-10-21 07:05:00,44.7,42.8,30.06,ENE,74,0.0,0.0,93,0.00,,,0.00,Wunderground v.1.15,2013-10-21 11:05:00,
2013-10-21 07:10:00,44.4,42.2,30.07,ENE,74,0.0,0.0,92,0.00,,,0.00,Wunderground v.1.15,2013-10-21 11:10:00,
2013-10-21 07:15:00,44.1,41.9,30.07,ENE,74,0.0,0.0,92,0.00,,,0.00,Wunderground v.1.15,2013-10-21 11:15:00,
2013-10-21 07:20:00,43.9,42.0,30.07,ENE,74,0.0,0.0,93,0.00,,,0.00,Wunderground v.1.15,2013-10-21 11:20:00,
2013-10-21 07:25:00,43.8,41.9,30.07,ENE,74,0.0,0.0,93,0.00,,,0.00,Wunderground v.1.15,2013-10-21 11:25:00,
2013-10-21 07:30:00,43.7,41.8,30.07,ENE,74,0.0,0.0,93,0.00,,,0.00,Wunderground v.1.15,2013-10-21 11:30:00,
2013-10-21 07:35:00,43.9,42.3,30.07,ENE,74,0.0,0.0,94,0.00,,,0.00,Wunderground v.1.15,2013-10-21 11:35:00,
2013-10-21 07:40:00,44.0,42.4,30.07,ENE,74,0.0,0.0,94,0.00,,,0.00,Wunderground v.1.15,2013-10-21 11:40:00,
2013-10-21 07:46:00,44.1,42.8,30.07,ENE,74,0.0,0.0,95,0.00,,,0.00,Wunderground v.1.15,2013-10-21 11:46:00,
2013-10-21 07:51:00,44.4,43.1,30.07,ENE,74,0.0,0.0,95,0.00,,,0.00,Wunderground v.1.15,2013-10-21 11:51:00,
2013-10-21 07:56:00,44.7,43.6,30.08,ENE,74,0.0,0.0,96,0.00,,,0.00,Wunderground v.1.15,2013-10-21 11:56:00,
2013-10-21 08:01:00,44.9,43.6,30.08,ENE,74,0.0,0.0,95,0.00,,,0.00,Wunderground v.1.15,2013-10-21 12:01:00,
2013-10-21 08:06:00,45.2,44.1,30.08,ENE,74,0.0,0.0,96,0.00,,,0.00,Wunderground v.1.15,2013-10-21 12:06:00,
2013-10-21 08:11:00,45.8,44.7,30.08,ENE,74,0.0,0.0,96,0.00,,,0.00,Wunderground v.1.15,2013-10-21 12:11:00,
2013-10-21 08:16:00,46.2,45.1,30.08,ENE,74,0.0,0.0,96,0.00,,,0.00,Wunderground v.1.15,2013-10-21 12:16:00,
2013-10-21 08:21:00,46.7,45.9,30.09,ENE,74,0.0,0.0,97,0.00,,,0.00,Wunderground v.1.15,2013-10-21 12:21:00,
2013-10-21 08:26:00,47.0,46.2,30.09,ENE,74,0.0,0.0,97,0.00,,,0.00,Wunderground v.1.15,2013-10-21 12:26:00,
2013-10-21 08:31:00,47.3,46.5,30.09,South,173,0.0,0.0,97,0.00,,,0.00,Wunderground v.1.15,2013-10-21 12:31:00,
2013-10-21 08:36:00,47.7,46.9,30.08,NE,53,0.0,0.0,97,0.00,,,0.00,Wunderground v.1.15,2013-10-21 12:36:00,
2013-10-21 08:41:00,48.0,47.2,30.08,NE,53,2.0,3.0,97,0.00,,,0.00,Wunderground v.1.15,2013-10-21 12:41:00,
2013-10-21 08:46:00,48.2,47.1,30.09,NE,53,2.0,4.0,96,0.00,,,0.00,Wunderground v.1.15,2013-10-21 12:46:00,
2013-10-21 08:51:00,48.3,47.5,30.09,NE,53,2.0,2.0,97,0.00,,,0.00,Wunderground v.1.15,2013-10-21 12:51:00,
2013-10-21 08:56:00,48.5,47.4,30.10,NE,53,0.0,4.0,96,0.00,,,0.00,Wunderground v.1.15,2013-10-21 12:56:00,
2013-10-21 09:01:00,48.6,47.5,30.10,NE,53,0.0,2.0,96,0.00,,,0.00,Wunderground v.1.15,2013-10-21 13:01:00,
2013-10-21 09:06:00,48.7,47.6,30.10,NE,53,0.0,2.0,96,0.00,,,0.00,Wunderground v.1.15,2013-10-21 13:06:00,
2013-10-21 09:11:00,49.0,47.9,30.10,NE,53,0.0,0.0,96,0.00,,,0.00,Wunderground v.1.15,2013-10-21 13:11:00,
2013-10-21 09:16:00,49.3,48.2,30.10,NE,53,0.0,0.0,96,0.00,,,0.00,Wunderground v.1.15,2013-10-21 13:16:00,
2013-10-21 09:21:00,49.7,48.9,30.10,NE,53,0.0,2.0,97,0.00,,,0.00,Wunderground v.1.15,2013-10-21 13:21:00,
2013-10-21 09:26:00,50.2,49.4,30.10,NE,53,0.0,2.0,97,0.00,,,0.00,Wunderground v.1.15,2013-10-21 13:26:00,
2013-10-21 09:31:00,50.7,49.9,30.10,NE,53,0.0,0.0,97,0.00,,,0.00,Wunderground v.1.15,2013-10-21 13:31:00,
2013-10-21 09:36:00,51.3,50.5,30.10,NE,53,0.0,0.0,97,0.00,,,0.00,Wunderground v.1.15,2013-10-21 13:36:00,
2013-10-21 09:41:00,51.8,51.0,30.10,NE,53,0.0,0.0,97,0.00,,,0.00,Wunderground v.1.15,2013-10-21 13:41:00,
2013-10-21 09:46:00,52.3,51.2,30.11,NE,53,0.0,0.0,96,0.00,,,0.00,Wunderground v.1.15,2013-10-21 13:46:00,
2013-10-21 09:51:00,52.8,51.7,30.11,NE,53,0.0,0.0,96,0.00,,,0.00,Wunderground v.1.15,2013-10-21 13:51:00,
2013-10-21 09:56:00,53.3,51.9,30.11,NE,53,0.0,2.0,95,0.00,,,0.00,Wunderground v.1.15,2013-10-21 13:56:00,
2013-10-21 10:01:00,53.9,52.5,30.11,NE,53,0.0,0.0,95,0.00,,,0.00,Wunderground v.1.15,2013-10-21 14:01:00,
2013-10-21 10:06:00,54.6,52.6,30.10,NE,44,0.0,3.0,93,0.00,,,0.00,Wunderground v.1.15,2013-10-21 14:06:00,
2013-10-21 10:11:00,55.3,53.0,30.11,NE,44,0.0,0.0,92,0.00,,,0.00,Wunderground v.1.15,2013-10-21 14:11:00,
2013-10-21 10:16:00,56.0,53.4,30.10,NE,44,0.0,0.0,91,0.00,,,0.00,Wunderground v.1.15,2013-10-21 14:16:00,
2013-10-21 10:22:00,57.1,53.9,30.10,North,9,0.0,4.0,89,0.00,,,0.00,Wunderground v.1.15,2013-10-21 14:22:00,
2013-10-21 10:27:00,57.9,53.4,30.10,North,5,0.0,0.0,85,0.00,,,0.00,Wunderground v.1.15,2013-10-21 14:27:00,
2013-10-21 10:32:00,58.6,53.8,30.10,NNE,28,0.0,0.0,84,0.00,,,0.00,Wunderground v.1.15,2013-10-21 14:32:00,
2013-10-21 10:37:00,59.2,54.0,30.10,SE,137,4.0,5.0,83,0.00,,,0.00,Wunderground v.1.15,2013-10-21 14:37:00,
2013-10-21 10:42:00,59.9,53.7,30.10,ESE,115,0.0,5.0,80,0.00,,,0.00,Wunderground v.1.15,2013-10-21 14:42:00,
2013-10-21 10:47:00,60.7,54.8,30.10,East,84,1.0,1.0,81,0.00,,,0.00,Wunderground v.1.15,2013-10-21 14:47:00,
2013-10-21 10:52:00,61.2,55.0,30.10,East,83,2.0,2.0,80,0.00,,,0.00,Wunderground v.1.15,2013-10-21 14:52:00,
2013-10-21 10:57:00,61.7,54.8,30.10,East,84,0.0,0.0,78,0.00,,,0.00,Wunderground v.1.15,2013-10-21 14:57:00,
2013-10-21 11:02:00,62.1,54.8,30.10,East,84,0.0,0.0,77,0.00,,,0.00,Wunderground v.1.15,2013-10-21 15:02:00,
2013-10-21 11:07:00,62.3,54.6,30.10,East,85,3.0,3.0,76,0.00,,,0.00,Wunderground v.1.15,2013-10-21 15:07:00,
2013-10-21 11:12:00,62.6,55.3,30.11,ESE,121,0.0,5.0,77,0.00,,,0.00,Wunderground v.1.15,2013-10-21 15:12:00,
2013-10-21 11:17:00,63.0,54.9,30.10,SSE,167,0.0,1.0,75,0.00,,,0.00,Wunderground v.1.15,2013-10-21 15:17:00,
2013-10-21 11:22:00,63.4,55.0,30.10,South,173,2.0,4.0,74,0.00,,,0.00,Wunderground v.1.15,2013-10-21 15:22:00,
2013-10-21 11:27:00,63.7,55.3,30.10,South,172,0.0,1.0,74,0.00,,,0.00,Wunderground v.1.15,2013-10-21 15:27:00,
2013-10-21 11:32:00,64.0,55.5,30.10,South,172,0.0,1.0,74,0.00,,,0.00,Wunderground v.1.15,2013-10-21 15:32:00,
2013-10-21 11:37:00,64.2,55.4,30.10,South,186,0.0,2.0,73,0.00,,,0.00,Wunderground v.1.15,2013-10-21 15:37:00,
2013-10-21 11:42:00,64.4,55.6,30.10,South,188,2.0,5.0,73,0.00,,,0.00,Wunderground v.1.15,2013-10-21 15:42:00,
2013-10-21 11:47:00,64.7,55.5,30.10,SSW,211,3.0,3.0,72,0.00,,,0.00,Wunderground v.1.15,2013-10-21 15:47:00,
2013-10-21 11:52:00,65.1,55.1,30.10,SSW,207,2.0,5.0,70,0.00,,,0.00,Wunderground v.1.15,2013-10-21 15:52:00,
2013-10-21 11:57:00,65.6,55.5,30.10,SSW,207,0.0,3.0,70,0.00,,,0.00,Wunderground v.1.15,2013-10-21 15:57:00,
2013-10-21 12:02:00,65.7,55.2,30.09,SSW,207,0.0,6.0,69,0.00,,,0.00,Wunderground v.1.15,2013-10-21 16:02:00,
2013-10-21 12:07:00,66.0,55.5,30.09,SSW,207,1.0,3.0,69,0.00,,,0.00,Wunderground v.1.15,2013-10-21 16:07:00,
2013-10-21 12:12:00,66.3,55.8,30.09,SSW,207,0.0,4.0,69,0.00,,,0.00,Wunderground v.1.15,2013-10-21 16:12:00,
2013-10-21 12:17:00,66.6,55.7,30.09,SSW,207,0.0,3.0,68,0.00,,,0.00,Wunderground v.1.15,2013-10-21 16:17:00,
2013-10-21 12:22:00,66.8,55.5,30.09,SSW,207,0.0,3.0,67,0.00,,,0.00,Wunderground v.1.15,2013-10-21 16:22:00,
2013-10-21 12:27:00,67.4,56.1,30.09,SSW,205,0.0,1.0,67,0.00,,,0.00,Wunderground v.1.15,2013-10-21 16:27:00,
2013-10-21 12:32:00,67.9,55.7,30.09,SSW,206,3.0,5.0,65,0.00,,,0.00,Wunderground v.1.15,2013-10-21 16:32:00,
2013-10-21 12:37:00,68.1,55.5,30.09,SSW,206,4.0,4.0,64,0.00,,,0.00,Wunderground v.1.15,2013-10-21 16:37:00,
2013-10-21 12:42:00,68.3,55.6,30.09,South,171,6.0,7.0,64,0.00,,,0.00,Wunderground v.1.15,2013-10-21 16:42:00,
2013-10-21 12:47:00,68.9,55.3,30.09,SSW,199,0.0,4.0,62,0.00,,,0.00,Wunderground v.1.15,2013-10-21 16:47:00,
2013-10-21 12:52:00,69.5,55.9,30.08,SSW,196,0.0,4.0,62,0.00,,,0.00,Wunderground v.1.15,2013-10-21 16:52:00,
2013-10-21 12:57:00,69.9,55.8,30.08,SE,138,0.0,0.0,61,0.00,,,0.00,Wunderground v.1.15,2013-10-21 16:57:00,
2013-10-21 13:02:00,70.5,55.9,30.07,SE,143,0.0,2.0,60,0.00,,,0.00,Wunderground v.1.15,2013-10-21 17:02:00,
2013-10-21 13:08:00,71.1,56.0,30.07,WNW,286,1.0,5.0,59,0.00,,,0.00,Wunderground v.1.15,2013-10-21 17:08:00,
2013-10-21 13:13:00,71.6,55.1,30.07,South,179,4.0,7.0,56,0.00,,,0.00,Wunderground v.1.15,2013-10-21 17:13:00,
2013-10-21 13:18:00,71.6,55.1,30.07,SSW,199,1.0,5.0,56,0.00,,,0.00,Wunderground v.1.15,2013-10-21 17:18:00,
2013-10-21 13:23:00,71.6,55.1,30.06,SSW,198,2.0,5.0,56,0.00,,,0.00,Wunderground v.1.15,2013-10-21 17:23:00,
2013-10-21 13:28:00,71.6,54.6,30.06,SSW,199,0.0,1.0,55,0.00,,,0.00,Wunderground v.1.15,2013-10-21 17:28:00,
2013-10-21 13:33:00,72.0,55.4,30.05,SSE,150,4.0,4.0,56,0.00,,,0.00,Wunderground v.1.15,2013-10-21 17:33:00,
2013-10-21 13:38:00,72.6,55.5,30.06,SE,145,0.0,1.0,55,0.00,,,0.00,Wunderground v.1.15,2013-10-21 17:38:00,
2013-10-21 13:43:00,73.0,54.9,30.06,South,177,0.0,6.0,53,0.00,,,0.00,Wunderground v.1.15,2013-10-21 17:43:00,
2013-10-21 13:48:00,73.0,55.4,30.05,WSW,250,0.0,1.0,54,0.00,,,0.00,Wunderground v.1.15,2013-10-21 17:48:00,
2013-10-21 13:53:00,73.3,55.1,30.04,WSW,242,1.0,3.0,53,0.00,,,0.00,Wunderground v.1.15,2013-10-21 17:53:00,
2013-10-21 13:58:00,73.4,54.7,30.04,WSW,239,4.0,4.0,52,0.00,,,0.00,Wunderground v.1.15,2013-10-21 17:58:00,
2013-10-21 14:03:00,73.0,54.9,30.03,WNW,283,0.0,4.0,53,0.00,,,0.00,Wunderground v.1.15,2013-10-21 18:03:00,
2013-10-21 14:08:00,72.7,54.6,30.04,SW,217,5.0,6.0,53,0.00,,,0.00,Wunderground v.1.15,2013-10-21 18:08:00,
2013-10-21 14:13:00,72.1,54.5,30.03,SW,219,2.0,6.0,54,0.00,,,0.00,Wunderground v.1.15,2013-10-21 18:13:00,
2013-10-21 14:18:00,71.7,54.2,30.04,SW,219,0.0,3.0,54,0.00,,,0.00,Wunderground v.1.15,2013-10-21 18:18:00,
2013-10-21 14:23:00,71.6,54.6,30.03,SW,219,1.0,3.0,55,0.00,,,0.00,Wunderground v.1.15,2013-10-21 18:23:00,
2013-10-21 14:28:00,71.3,54.3,30.03,SW,220,3.0,3.0,55,0.00,,,0.00,Wunderground v.1.15,2013-10-21 18:28:00,
2013-10-21 14:33:00,71.0,54.5,30.03,SW,221,0.0,3.0,56,0.00,,,0.00,Wunderground v.1.15,2013-10-21 18:33:00,
2013-10-21 14:38:00,71.0,54.5,30.02,SW,221,0.0,1.0,56,0.00,,,0.00,Wunderground v.1.15,2013-10-21 18:38:00,
2013-10-21 14:43:00,71.2,54.7,30.02,SW,221,0.0,1.0,56,0.00,,,0.00,Wunderground v.1.15,2013-10-21 18:43:00,
2013-10-21 14:48:00,71.7,55.2,30.02,SW,220,1.0,3.0,56,0.00,,,0.00,Wunderground v.1.15,2013-10-21 18:48:00,
2013-10-21 14:53:00,72.1,55.0,30.02,SW,220,4.0,5.0,55,0.00,,,0.00,Wunderground v.1.15,2013-10-21 18:53:00,
2013-10-21 14:58:00,72.5,54.9,30.02,SW,219,0.0,2.0,54,0.00,,,0.00,Wunderground v.1.15,2013-10-21 18:58:00,
2013-10-21 15:03:00,72.8,55.7,30.02,SW,219,0.0,2.0,55,0.00,,,0.00,Wunderground v.1.15,2013-10-21 19:03:00,
2013-10-21 15:08:00,73.1,55.5,30.03,SW,219,2.0,2.0,54,0.00,,,0.00,Wunderground v.1.15,2013-10-21 19:08:00,
2013-10-21 15:13:00,73.0,54.9,30.02,SW,219,0.0,2.0,53,0.00,,,0.00,Wunderground v.1.15,2013-10-21 19:13:00,
2013-10-21 15:18:00,72.8,55.2,30.02,SW,223,2.0,3.0,54,0.00,,,0.00,Wunderground v.1.15,2013-10-21 19:18:00,
2013-10-21 15:23:00,72.6,55.0,30.02,SW,227,1.0,3.0,54,0.00,,,0.00,Wunderground v.1.15,2013-10-21 19:23:00,
2013-10-21 15:28:00,72.3,55.7,30.02,SW,227,0.0,1.0,56,0.00,,,0.00,Wunderground v.1.15,2013-10-21 19:28:00,
2013-10-21 15:33:00,72.5,55.9,30.02,SW,225,2.0,3.0,56,0.00,,,0.00,Wunderground v.1.15,2013-10-21 19:33:00,
2013-10-21 15:38:00,72.6,55.0,30.01,South,185,2.0,5.0,54,0.00,,,0.00,Wunderground v.1.15,2013-10-21 19:38:00,
2013-10-21 15:43:00,72.6,55.5,30.01,South,185,0.0,5.0,55,0.00,,,0.00,Wunderground v.1.15,2013-10-21 19:43:00,
2013-10-21 15:48:00,72.6,56.0,30.01,South,185,0.0,1.0,56,0.00,,,0.00,Wunderground v.1.15,2013-10-21 19:48:00,
2013-10-21 15:53:00,72.8,55.7,30.01,South,184,0.0,3.0,55,0.00,,,0.00,Wunderground v.1.15,2013-10-21 19:53:00,
2013-10-21 15:58:00,73.0,55.4,30.01,South,173,4.0,4.0,54,0.00,,,0.00,Wunderground v.1.15,2013-10-21 19:58:00,
2013-10-21 16:03:00,73.1,55.5,30.01,SSE,165,0.0,5.0,54,0.00,,,0.00,Wunderground v.1.15,2013-10-21 20:03:00,
2013-10-21 16:08:00,72.9,55.3,30.00,SSW,200,0.0,3.0,54,0.00,,,0.00,Wunderground v.1.15,2013-10-21 20:08:00,
2013-10-21 16:13:00,72.9,55.8,30.00,SSW,200,0.0,3.0,55,0.00,,,0.00,Wunderground v.1.15,2013-10-21 20:13:00,
2013-10-21 16:18:00,72.9,56.3,30.00,SSW,192,0.0,1.0,56,0.00,,,0.00,Wunderground v.1.15,2013-10-21 20:18:00,
2013-10-21 16:23:00,72.8,56.2,30.00,SE,128,0.0,1.0,56,0.00,,,0.00,Wunderground v.1.15,2013-10-21 20:23:00,
2013-10-21 16:28:00,72.6,56.5,30.00,ENE,74,2.0,4.0,57,0.00,,,0.00,Wunderground v.1.15,2013-10-21 20:28:00,
2013-10-21 16:33:00,72.3,55.7,30.01,ENE,75,0.0,4.0,56,0.00,,,0.00,Wunderground v.1.15,2013-10-21 20:33:00,
2013-10-21 16:38:00,72.3,56.2,30.00,SSE,167,0.0,1.0,57,0.00,,,0.00,Wunderground v.1.15,2013-10-21 20:38:00,
2013-10-21 16:43:00,72.4,55.8,30.00,SSE,167,0.0,4.0,56,0.00,,,0.00,Wunderground v.1.15,2013-10-21 20:43:00,
2013-10-21 16:48:00,72.4,55.3,30.00,SSE,167,0.0,0.0,55,0.00,,,0.00,Wunderground v.1.15,2013-10-21 20:48:00,
2013-10-21 16:53:00,72.2,55.6,30.00,South,169,0.0,4.0,56,0.00,,,0.00,Wunderground v.1.15,2013-10-21 20:53:00,
2013-10-21 16:58:00,71.9,55.8,30.00,South,169,1.0,4.0,57,0.00,,,0.00,Wunderground v.1.15,2013-10-21 20:58:00,
2013-10-21 17:03:00,71.8,56.2,30.00,South,178,1.0,5.0,58,0.00,,,0.00,Wunderground v.1.15,2013-10-21 21:03:00,
2013-10-21 17:08:00,71.7,56.1,30.00,South,179,4.0,5.0,58,0.00,,,0.00,Wunderground v.1.15,2013-10-21 21:08:00,
2013-10-21 17:13:00,71.5,56.4,30.00,SW,223,4.0,5.0,59,0.00,,,0.00,Wunderground v.1.15,2013-10-21 21:13:00,
2013-10-21 17:18:00,71.3,56.7,30.00,South,171,4.0,7.0,60,0.00,,,0.00,Wunderground v.1.15,2013-10-21 21:18:00,
2013-10-21 17:23:00,71.1,56.5,30.00,South,174,2.0,7.0,60,0.00,,,0.00,Wunderground v.1.15,2013-10-21 21:23:00,
2013-10-21 17:28:00,71.0,56.9,30.00,South,178,0.0,5.0,61,0.00,,,0.00,Wunderground v.1.15,2013-10-21 21:28:00,
2013-10-21 17:33:00,70.9,56.8,30.00,South,178,4.0,6.0,61,0.00,,,0.00,Wunderground v.1.15,2013-10-21 21:33:00,
2013-10-21 17:38:00,70.7,57.0,30.00,South,180,3.0,5.0,62,0.00,,,0.00,Wunderground v.1.15,2013-10-21 21:38:00,
2013-10-21 17:43:00,70.7,57.0,30.00,South,180,4.0,5.0,62,0.00,,,0.00,Wunderground v.1.15,2013-10-21 21:43:00,
2013-10-21 17:48:00,70.6,57.4,30.00,South,180,4.0,6.0,63,0.00,,,0.00,Wunderground v.1.15,2013-10-21 21:48:00,
2013-10-21 17:54:00,70.4,57.2,30.00,South,180,0.0,6.0,63,0.00,,,0.00,Wunderground v.1.15,2013-10-21 21:54:00,
2013-10-21 17:59:00,70.2,57.0,30.00,South,180,0.0,4.0,63,0.00,,,0.00,Wunderground v.1.15,2013-10-21 21:59:00,
2013-10-21 18:04:00,70.1,57.4,30.00,South,180,0.0,4.0,64,0.00,,,0.00,Wunderground v.1.15,2013-10-21 22:04:00,
2013-10-21 18:09:00,70.0,57.3,30.00,South,180,0.0,4.0,64,0.00,,,0.00,Wunderground v.1.15,2013-10-21 22:09:00,
2013-10-21 18:14:00,69.9,57.6,29.99,South,180,0.0,4.0,65,0.00,,,0.00,Wunderground v.1.15,2013-10-21 22:14:00,
2013-10-21 18:19:00,69.7,57.4,29.99,South,180,0.0,0.0,65,0.00,,,0.00,Wunderground v.1.15,2013-10-21 22:19:00,
2013-10-21 18:24:00,69.5,57.2,29.99,South,180,0.0,0.0,65,0.00,,,0.00,Wunderground v.1.15,2013-10-21 22:24:00,
2013-10-21 18:29:00,69.3,57.5,29.99,South,180,0.0,0.0,66,0.00,,,0.00,Wunderground v.1.15,2013-10-21 22:29:00,
2013-10-21 18:34:00,69.1,57.3,29.99,South,180,0.0,0.0,66,0.00,,,0.00,Wunderground v.1.15,2013-10-21 22:34:00,
2013-10-21 18:39:00,68.9,57.5,29.99,South,180,0.0,0.0,67,0.00,,,0.00,Wunderground v.1.15,2013-10-21 22:39:00,
2013-10-21 18:44:00,68.6,57.6,30.00,South,180,0.0,0.0,68,0.00,,,0.00,Wunderground v.1.15,2013-10-21 22:44:00,
2013-10-21 18:49:00,68.3,58.1,30.00,South,180,0.0,0.0,70,0.00,,,0.00,Wunderground v.1.15,2013-10-21 22:49:00,
2013-10-21 18:54:00,67.8,57.7,30.00,South,180,0.0,0.0,70,0.00,,,0.00,Wunderground v.1.15,2013-10-21 22:54:00,
2013-10-21 18:59:00,67.4,57.7,30.00,South,180,0.0,0.0,71,0.00,,,0.00,Wunderground v.1.15,2013-10-21 22:59:00,
2013-10-21 19:04:00,67.1,57.8,30.00,South,180,0.0,0.0,72,0.00,,,0.00,Wunderground v.1.15,2013-10-21 23:04:00,
2013-10-21 19:09:00,66.8,57.5,30.00,South,180,0.0,0.0,72,0.00,,,0.00,Wunderground v.1.15,2013-10-21 23:09:00,
2013-10-21 19:14:00,66.5,57.6,30.00,South,180,0.0,0.0,73,0.00,,,0.00,Wunderground v.1.15,2013-10-21 23:14:00,
2013-10-21 19:20:00,66.2,57.3,30.00,South,180,0.0,0.0,73,0.00,,,0.00,Wunderground v.1.15,2013-10-21 23:20:00,
2013-10-21 19:25:00,66.0,57.5,29.99,South,180,0.0,0.0,74,0.00,,,0.00,Wunderground v.1.15,2013-10-21 23:25:00,
2013-10-21 19:30:00,65.9,57.7,30.00,South,180,0.0,0.0,75,0.00,,,0.00,Wunderground v.1.15,2013-10-21 23:30:00,
2013-10-21 19:35:00,65.6,57.8,30.00,South,180,0.0,0.0,76,0.00,,,0.00,Wunderground v.1.15,2013-10-21 23:35:00,
2013-10-21 19:40:00,65.3,57.5,29.99,South,180,0.0,0.0,76,0.00,,,0.00,Wunderground v.1.15,2013-10-21 23:40:00,
2013-10-21 19:45:00,64.8,57.8,30.00,South,180,0.0,0.0,78,0.00,,,0.00,Wunderground v.1.15,2013-10-21 23:45:00,
2013-10-21 19:50:00,64.4,57.7,30.00,South,180,0.0,0.0,79,0.00,,,0.00,Wunderground v.1.15,2013-10-21 23:50:00,
2013-10-21 19:55:00,64.1,57.5,30.00,South,180,0.0,0.0,79,0.00,,,0.00,Wunderground v.1.15,2013-10-21 23:55:00,
2013-10-21 20:00:00,64.0,57.4,30.00,South,180,0.0,0.0,79,0.00,,,0.00,Wunderground v.1.15,2013-10-22 00:00:00,
2013-10-21 20:05:00,63.8,57.5,30.00,South,180,0.0,0.0,80,0.00,,,0.00,Wunderground v.1.15,2013-10-22 00:05:00,
2013-10-21 20:10:00,63.6,57.3,30.01,South,180,0.0,0.0,80,0.00,,,0.00,Wunderground v.1.15,2013-10-22 00:10:00,
2013-10-21 20:15:00,63.4,57.1,30.01,South,180,0.0,0.0,80,0.00,,,0.00,Wunderground v.1.15,2013-10-22 00:15:00,
2013-10-21 20:20:00,63.3,57.4,30.01,South,180,0.0,0.0,81,0.00,,,0.00,Wunderground v.1.15,2013-10-22 00:20:00,
2013-10-21 20:25:00,63.1,57.2,30.00,South,180,0.0,0.0,81,0.00,,,0.00,Wunderground v.1.15,2013-10-22 00:25:00,
2013-10-21 20:30:00,63.0,57.4,30.00,South,180,0.0,0.0,82,0.00,,,0.00,Wunderground v.1.15,2013-10-22 00:30:00,
2013-10-21 20:35:00,62.8,57.2,30.00,South,180,0.0,0.0,82,0.00,,,0.00,Wunderground v.1.15,2013-10-22 00:35:00,
2013-10-21 20:40:00,62.7,57.5,30.00,South,180,0.0,0.0,83,0.00,,,0.00,Wunderground v.1.15,2013-10-22 00:40:00,
2013-10-21 20:45:00,62.5,57.3,29.99,South,180,0.0,0.0,83,0.00,,,0.00,Wunderground v.1.15,2013-10-22 00:45:00,
2013-10-21 20:50:00,62.3,57.1,30.00,South,180,0.0,0.0,83,0.00,,,0.00,Wunderground v.1.15,2013-10-22 00:50:00,
2013-10-21 20:55:00,62.2,57.0,30.00,South,180,0.0,0.0,83,0.00,,,0.00,Wunderground v.1.15,2013-10-22 00:55:00,
2013-10-21 21:00:00,62.0,57.1,29.99,South,180,0.0,0.0,84,0.00,,,0.00,Wunderground v.1.15,2013-10-22 01:00:00,
2013-10-21 21:06:00,62.0,57.1,29.99,South,180,0.0,0.0,84,0.00,,,0.00,Wunderground v.1.15,2013-10-22 01:06:00,
2013-10-21 21:11:00,61.9,57.0,29.98,South,180,0.0,0.0,84,0.00,,,0.00,Wunderground v.1.15,2013-10-22 01:11:00,
2013-10-21 21:16:00,61.8,56.9,29.99,South,180,0.0,0.0,84,0.00,,,0.00,Wunderground v.1.15,2013-10-22 01:16:00,
2013-10-21 21:21:00,61.8,56.9,29.98,South,180,0.0,0.0,84,0.00,,,0.00,Wunderground v.1.15,2013-10-22 01:21:00,
2013-10-21 21:26:00,61.6,56.7,29.98,South,180,0.0,0.0,84,0.00,,,0.00,Wunderground v.1.15,2013-10-22 01:26:00,
2013-10-21 21:31:00,61.4,56.8,29.98,South,180,0.0,0.0,85,0.00,,,0.00,Wunderground v.1.15,2013-10-22 01:31:00,
2013-10-21 21:36:00,61.2,56.7,29.99,South,180,0.0,0.0,85,0.00,,,0.00,Wunderground v.1.15,2013-10-22 01:36:00,
2013-10-21 21:41:00,60.9,56.4,29.99,South,180,0.0,0.0,85,0.00,,,0.00,Wunderground v.1.15,2013-10-22 01:41:00,
2013-10-21 21:46:00,60.6,56.4,29.99,South,180,0.0,0.0,86,0.00,,,0.00,Wunderground v.1.15,2013-10-22 01:46:00,
2013-10-21 21:50:00,51.0,49.9,30.35,ENE,76,0.0,0.0,96,0.00,,,0.04,Wunderground v.1.15,2013-10-22 01:50:00,
2013-10-21 21:51:00,60.4,56.2,29.99,South,180,0.0,0.0,86,0.00,,,0.00,Wunderground v.1.15,2013-10-22 01:51:00,
2013-10-21 21:52:00,50.9,49.8,30.35,ENE,76,0.0,0.0,96,0.00,,,0.04,Wunderground v.1.15,2013-10-22 01:52:00,
2013-10-21 21:53:00,51.0,49.9,30.36,ENE,76,0.0,0.0,96,0.00,,,0.04,Wunderground v.1.15,2013-10-22 01:53:00,
2013-10-21 21:54:00,51.0,49.9,30.36,ENE,76,0.0,0.0,96,0.00,,,0.04,Wunderground v.1.15,2013-10-22 01:54:00,
2013-10-21 21:55:00,51.0,49.9,30.36,ENE,76,0.0,0.0,96,0.00,,,0.04,Wunderground v.1.15,2013-10-22 01:55:00,
2013-10-21 21:56:00,60.3,56.4,29.99,South,180,0.0,0.0,87,0.00,,,0.00,Wunderground v.1.15,2013-10-22 01:56:00,
2013-10-21 21:57:00,51.0,49.9,30.35,ENE,76,0.0,0.0,96,0.00,,,0.04,Wunderground v.1.15,2013-10-22 01:57:00,
2013-10-21 21:58:00,51.0,49.9,30.35,ENE,76,0.0,0.0,96,0.00,,,0.04,Wunderground v.1.15,2013-10-22 01:58:00,
2013-10-21 21:59:00,51.0,49.9,30.35,ENE,76,0.0,0.0,96,0.00,,,0.04,Wunderground v.1.15,2013-10-22 01:59:00,
2013-10-21 22:00:00,51.0,49.9,30.35,ENE,76,0.0,0.0,96,0.00,,,0.04,Wunderground v.1.15,2013-10-22 02:00:00,
2013-10-21 22:01:00,60.3,56.4,29.99,South,180,0.0,0.0,87,0.00,,,0.00,Wunderground v.1.15,2013-10-22 02:01:00,
2013-10-21 22:02:00,51.0,49.9,30.36,ENE,76,0.0,0.0,96,0.00,,,0.04,Wunderground v.1.15,2013-10-22 02:02:00,
2013-10-21 22:03:00,51.0,49.9,30.35,ENE,76,0.0,0.0,96,0.00,,,0.04,Wunderground v.1.15,2013-10-22 02:03:00,
2013-10-21 22:04:00,51.0,49.9,30.36,ENE,76,0.0,0.0,96,0.00,,,0.04,Wunderground v.1.15,2013-10-22 02:04:00,
2013-10-21 22:05:00,51.0,49.9,30.35,ENE,76,0.0,0.0,96,0.00,,,0.04,Wunderground v.1.15,2013-10-22 02:05:00,
2013-10-21 22:06:00,60.2,56.3,29.99,South,180,0.0,0.0,87,0.00,,,0.00,Wunderground v.1.15,2013-10-22 02:06:00,
2013-10-21 22:11:00,60.1,56.2,30.00,South,180,0.0,0.0,87,0.00,,,0.00,Wunderground v.1.15,2013-10-22 02:11:00,
2013-10-21 22:16:00,60.1,56.5,30.00,South,180,0.0,0.0,88,0.00,,,0.00,Wunderground v.1.15,2013-10-22 02:16:00,
2013-10-21 22:21:00,60.1,56.5,30.00,South,180,0.0,0.0,88,0.00,,,0.00,Wunderground v.1.15,2013-10-22 02:21:00,
2013-10-21 22:26:00,60.0,56.4,30.00,South,180,0.0,0.0,88,0.00,,,0.00,Wunderground v.1.15,2013-10-22 02:26:00,
2013-10-21 22:31:00,60.0,56.4,30.00,South,180,0.0,0.0,88,0.00,,,0.00,Wunderground v.1.15,2013-10-22 02:31:00,
2013-10-21 22:36:00,60.0,56.4,30.00,South,180,0.0,0.0,88,0.00,,,0.00,Wunderground v.1.15,2013-10-22 02:36:00,
2013-10-21 22:41:00,59.9,56.3,29.99,South,180,0.0,0.0,88,0.00,,,0.00,Wunderground v.1.15,2013-10-22 02:41:00,
2013-10-21 22:46:00,59.9,56.3,30.00,South,180,0.0,0.0,88,0.00,,,0.00,Wunderground v.1.15,2013-10-22 02:46:00,
2013-10-21 22:51:00,59.8,56.2,30.00,South,180,0.0,0.0,88,0.00,,,0.00,Wunderground v.1.15,2013-10-22 02:51:00,
2013-10-21 22:56:00,59.6,56.0,30.00,South,180,0.0,0.0,88,0.00,,,0.00,Wunderground v.1.15,2013-10-22 02:56:00,
2013-10-21 23:01:00,59.4,55.8,30.00,South,180,0.0,0.0,88,0.00,,,0.00,Wunderground v.1.15,2013-10-22 03:01:00,
2013-10-21 23:06:00,59.2,56.0,30.00,South,180,0.0,0.0,89,0.00,,,0.00,Wunderground v.1.15,2013-10-22 03:06:00,
2013-10-21 23:11:00,59.1,55.9,30.00,South,180,0.0,0.0,89,0.00,,,0.00,Wunderground v.1.15,2013-10-22 03:11:00,
2013-10-21 23:17:00,59.1,56.2,30.00,South,180,0.0,0.0,90,0.00,,,0.00,Wunderground v.1.15,2013-10-22 03:17:00,
2013-10-21 23:22:00,59.1,55.9,30.01,South,180,0.0,0.0,89,0.00,,,0.00,Wunderground v.1.15,2013-10-22 03:22:00,
2013-10-21 23:27:00,59.0,55.8,30.00,South,180,0.0,0.0,89,0.00,,,0.00,Wunderground v.1.15,2013-10-22 03:27:00,
2013-10-21 23:32:00,59.0,55.8,30.00,South,180,0.0,0.0,89,0.00,,,0.00,Wunderground v.1.15,2013-10-22 03:32:00,
2013-10-21 23:37:00,59.0,56.1,30.01,South,180,0.0,0.0,90,0.00,,,0.00,Wunderground v.1.15,2013-10-22 03:37:00,
2013-10-21 23:42:00,59.1,56.2,30.02,South,180,0.0,0.0,90,0.00,,,0.00,Wunderground v.1.15,2013-10-22 03:42:00,
2013-10-21 23:47:00,59.1,56.2,30.01,South,180,0.0,0.0,90,0.00,,,0.00,Wunderground v.1.15,2013-10-22 03:47:00,
2013-10-21 23:52:00,59.2,56.3,30.02,South,180,0.0,0.0,90,0.00,,,0.00,Wunderground v.1.15,2013-10-22 03:52:00,
2013-10-21 23:57:00,59.3,56.1,30.01,South,180,0.0,0.0,89,0.00,,,0.00,Wunderground v.1.15,2013-10-22 03:57:00,